Regional Weather Roundup
Issued by NWS

Home | Current Version | Previous Version | Text Only | Print | Product List | Glossary On
Versions: 1 2 3 4 5 6 7 8 9 10 11 12 13 14 15 16 17 18 19 20 21 22 23 24 25 26 27 28 29 30 31 32 33 34 35 36 37 38 39 40 41 42 43 44 45 46 47 48 49 50
000
ASUS44 KFWD 211515
RWRTX
NORTH TEXAS HOURLY WEATHER ROUNDUP
NATIONAL WEATHER SERVICE FORT WORTH TX
1000 AM CDT SUN SEP 21 2014

NOTE: "FAIR" INDICATES FEW OR NO CLOUDS BELOW 12,000 FEET WITH NO
SIGNIFICANT WEATHER AND/OR OBSTRUCTIONS TO VISIBILITY.

TXZ118-119-211600-
DALLAS/FORT WORTH METROPLEX

CITY           SKY/WX    TMP DP  RH WIND       PRES   REMARKS
DFW AIRPORT    MOSUNNY   82  66  58 W5        30.10R
DALLAS LOVE    SUNNY     83  66  56 CALM      30.10R
FTW MEACHAM    SUNNY     81  67  62 VRB3      30.11R
DAL-EXECUTIVE  SUNNY     83  67  58 CALM      30.11R
FTW-ALLIANCE   MOSUNNY   81  65  58 CALM      30.10S
FTW-NAS-JRB    MOSUNNY   82  66  58 CALM      30.15R
FTW-SPINKS     SUNNY     81  66  61 CALM      30.13R
ARLINGTON      SUNNY     81  66  60 S3        30.11R
GRAND PRAIRIE  SUNNY     79  64  61 MISG      30.12S
ADDISON        SUNNY     82  64  54 W3        30.11R
MESQUITE       SUNNY     81  64  57 CALM      30.10S
LANCASTER      SUNNY     79  65  62 CALM      30.12R
$$

TXZ091>094-102>105-117-120-121-131>134-211600-
NORTH CENTRAL TEXAS

CITY           SKY/WX    TMP DP  RH WIND       PRES   REMARKS
SHRMAN/DENISON SUNNY     80  65  61 SW3       30.13R
GAINESVILLE    SUNNY     78  66  66 SW3       30.14R
BOWIE          SUNNY     82  67  60 SW5       30.13R
BRIDGEPORT     SUNNY     79  65  62 SW5       30.14R
DECATUR        SUNNY     79  65  62 SW7       30.13R
DENTON         SUNNY     80  65  59 S3        30.11R
MCKINNEY       SUNNY     82  66  58 NW3       30.11R
GREENVILLE     SUNNY     82  64  54 W3        30.11R
ROCKWALL       SUNNY     81  68  63 CALM      30.10R
TERRELL        SUNNY     84  66  54 SW3       30.11R
WAXAHACHIE     SUNNY     81  65  57 CALM      30.12S
CLEBURNE       SUNNY     81  72  74 CALM      30.13S
GRANBURY       SUNNY     79  68  69 CALM      30.12S
$$

TXZ083>090-098>101-113>116-127>130-139>142-154-155-211600-
WESTERN NORTH TEXAS

CITY           SKY/WX    TMP DP  RH WIND       PRES   REMARKS
WICHITA FALLS  SUNNY     81  67  62 SW5       30.11S
WF-KICKAPOO    SUNNY     81  65  57 SW7       30.13S
VERNON         SUNNY     80  69  68 CALM      30.13S
ABILENE        MOSUNNY   76  71  85 SE8       30.16R
ABILENE-DYESS  MOSUNNY   80  62  54 SE5       30.14S
BRECKENRIDGE   SUNNY     81  66  61 SW3       30.13S
GRAHAM         SUNNY     82  65  56 SW5       30.12R
MINERAL WELLS  SUNNY     80  66  62 CALM      30.11S
STEPHENVILLE   CLOUDY    78  68  71 CALM      30.16R
COMANCHE       MOSUNNY   77  70  79 CALM      30.14S
BROWNWOOD      PTSUNNY   77  72  83 CALM      30.14R
COLEMAN        CLOUDY    76  69  79 CALM      30.15R
BRADY          PTSUNNY   75  72  88 SE3       30.14R
$$

TXZ143>147-156>162-174-175-211600-
CENTRAL TEXAS

CITY           SKY/WX    TMP DP  RH WIND       PRES   REMARKS
WACO           SUNNY     81  70  69 CALM      30.10R
WACO-TSTC      SUNNY     79  72  78 CALM      30.10S
WACO-MCGREGOR  SUNNY     79  70  73 CALM      30.12R
HILLSBORO      SUNNY     82  67  61 S3        30.12R
CORSICANA      SUNNY     81  67  62 CALM      30.11S
MEXIA          SUNNY     79  70  74 CALM      30.10R
HEARNE         SUNNY     80  72  76 N3        30.09R
CAMERON        SUNNY     80  72  76 CALM      30.09S
TEMPLE         SUNNY     81  68  65 CALM      30.10R
KILLEEN        MOSUNNY   81  70  69 CALM      30.11R
KILLEEN-SKYLRK SUNNY     81  68  65 S3        30.10S
FORT HOOD      SUNNY     83  71  67 CALM      30.11R
GATESVILLE     SUNNY     81  70  69 CALM      30.14R
HAMILTON       MOSUNNY   79  70  73 CALM      30.14S
LAMPASAS       SUNNY     78  71  79 SE5       30.11S
$$

TXZ095>097-106>112-122>126-135>138-148>153-164>167-211600-
EAST TEXAS

CITY           SKY/WX    TMP DP  RH WIND       PRES   REMARKS
PARIS          SUNNY     79  66  65 W5        30.11R
SULPHUR SPRNGS SUNNY     82  67  61 NW3       30.12R
MOUNT PLEASANT SUNNY     82  68  62 W6        30.11R
GILMER         SUNNY     82  70  65 CALM      30.11R
MINEOLA        SUNNY     82  72  69 W3        30.11R
TYLER          SUNNY     81  68  64 CALM      30.10R
LONGVIEW       SUNNY     81  68  64 NW6       30.09R
MARSHALL       SUNNY     86  69  57 CALM      30.10R HX  90
ATHENS         SUNNY     81  66  61 CALM      30.10R
PALESTINE      SUNNY     80  70  70 CALM      30.11R
JACKSONVILLE   SUNNY     80  68  65 CALM      30.12R
HENDERSON      SUNNY     81  69  65 CALM      30.11R
NACOGDOCHES    SUNNY     81  68  65 NW3       30.09S
LUFKIN         SUNNY     84  69  60 CALM      30.08R
$$

SUPPLEMENTAL OBSERVATIONS (CENTRAL)

CITY           SKY/WX    TMP DP  RH WIND       PRES   REMARKS
LAKE TEXOMA      N/A     75  64  69 NW2         N/A
CADDO GRASSLND   N/A     82  72  69 SW3         N/A
PAT MAYSE LAKE   N/A     75  70  83 SE1         N/A
GREENVILLE       N/A     84  66  54 W6          N/A
CEDAR HILL       N/A     82  68  61 SW3         N/A
ATHENS           N/A     86  66  51 NW1         N/A
LAKE LIMESTONE   N/A     84  70  61 NE3         N/A
MCGREGOR         N/A     84  70  61 SW1         N/A
$$

SUPPLEMENTAL OBSERVATIONS (WEST)

CITY           SKY/WX    TMP DP  RH WIND       PRES   REMARKS
MILLERS CREEK    N/A     81  75  83 S3          N/A
LBJ GRASSLAND    N/A     81  66  61 SW6         N/A
GRANBURY         N/A     81  68  65 E1          N/A
COMANCHE         N/A     79  73  83 SW3         N/A
HAMBY            N/A     81  72  74 S3          N/A
IVIE RESERVOIR   N/A     79  70  73 SE5         N/A
COLORADO BEND    N/A     81  68  65 SE8         N/A
$$

SUPPLEMENTAL OBSERVATIONS (EAST)

CITY           SKY/WX    TMP DP  RH WIND       PRES   REMARKS
TEXARKANA        N/A     84  70  61 W1          N/A
CADDO LAKE       N/A     84  68  58 NW3         N/A
LUFKIN           N/A     84  70  61 MISG        N/A
N SABINE NF      N/A     81  73  78 MISG        N/A
$$

SUPPLEMENTAL OBSERVATIONS ARE A COLLECTION OF AUTOMATED INSTRUMENTS
THAT ARE MAINTAINED BY A VARIETY OF FEDERAL AND STATE AGENCIES.
CERTAIN ELEMENTS...SUCH AS HUMIDITY VALUES AND SUSTAINED WIND
SPEEDS...MAY BE APPROXIMATED.




USA.gov is the U.S. government's official web portal to all federal, state and local government web resources and services.